This is the latest recevied weather packets stored in our database for station/object W8AN. If no packets are shown the sender has not sent any weather packets the latest 10 day(s).
| Time | Temp. | Humidity | Pressure | Rain* | Wind** | Luminosity | Snow |
|---|---|---|---|---|---|---|---|
| 1777409219 | 16.67° C | 70% | 4267.2 hPa | 0 mm | - | 163 W/m² | - |
| 1777408915 | 17.22° C | 70% | 4267.3 hPa | 0 mm | - | 233 W/m² | - |
| 1777408612 | 17.22° C | 70% | 4267 hPa | 0 mm | - | 271 W/m² | - |
| 1777408307 | 16.67° C | 69% | 4267.1 hPa | 0 mm | - | 717 W/m² | - |
| 1777408007 | 16.67° C | 71% | 4267.3 hPa | 0 mm | - | 259 W/m² | - |
| 1777407704 | 16.67° C | 70% | 4267.3 hPa | 0 mm | - | 352 W/m² | - |
| 1777407399 | 16.67° C | 72% | 4267.4 hPa | 0 mm | - | 320 W/m² | - |
| 1777407094 | 16.67° C | 73% | 4267.4 hPa | 0 mm | - | 265 W/m² | - |
| 1777406790 | 16.11° C | 72% | 4267.6 hPa | 0 mm | - | 203 W/m² | - |
| 1777406485 | 16.67° C | 72% | 4267.6 hPa | 0 mm | - | 217 W/m² | - |
| 1777406181 | 16.67° C | 71% | 4267.6 hPa | 0 mm | - | 256 W/m² | - |
| 1777405875 | 16.67° C | 71% | 4267.6 hPa | 0 mm | - | 286 W/m² | - |
| 1777405571 | 16.67° C | 69% | 4267.6 hPa | 0 mm | - | 282 W/m² | - |
| 1777405269 | 16.67° C | 71% | 4267.4 hPa | 0 mm | - | 263 W/m² | - |
| 1777404968 | 16.67° C | 70% | 4267.5 hPa | 0 mm | - | 533 W/m² | - |
| 1777404663 | 16.67° C | 70% | 4267.3 hPa | 0 mm | - | 241 W/m² | - |
| 1777404360 | 17.22° C | 70% | 4267.1 hPa | 0 mm | - | 421 W/m² | - |
| 1777404056 | 16.67° C | 71% | 4267.3 hPa | 0 mm | - | 957 W/m² | - |
| 1777403751 | 16.67° C | 70% | 4267.4 hPa | 0 mm | - | 301 W/m² | - |
| 1777403450 | 17.22° C | 69% | 4267.3 hPa | 0 mm | - | 939 W/m² | - |
| 1777403145 | 16.67° C | 70% | 4267.1 hPa | 0 mm | - | 422 W/m² | - |
| 1777402840 | 17.22° C | 68% | 4267.2 hPa | 0 mm | - | 426 W/m² | - |
| 1777402538 | 16.67° C | 70% | 4267.1 hPa | 0 mm | - | 363 W/m² | - |
| 1777402234 | 17.22° C | 72% | 4267.2 hPa | 0 mm | - | 301 W/m² | - |
| 1777401929 | 16.67° C | 71% | 4267.4 hPa | 0 mm | - | 387 W/m² | - |
* Rain latest hour (hover to see other rain measurements)
** Current wind speed in m/s (hover to see current wind gust speed)